Location: Waco, TX
(31.5480°N, 97.1670°W)
Time: 04:08:06
(UTC-06:00)

ISS - Pass Details

Date: 15 January 2019
Orbit: 404 x 407 km, 51.6° (Epoch: 16 January)

Event Time Altitude Azimuth Distance (km) Brightness Sun altitude
Rises 21:20:17 0° 231° (SW) 2,311 - -44.8°
Reaches altitude 10° 21:22:23 10° 234° (SW) 1,455 - -45.2°
Maximum altitude 21:25:36 62° 316° (NW) 459 - -45.9°
Drops below altitude 10° 21:28:52 10° 38° (NE) 1,464 - -46.6°
Sets 21:30:58 0° 42° (NE) 2,327 - -47.1°
